VLG1DX LEBB-EBBR

Flight info

Callsign VLG1DX
Flight time 1h 36m
Altitude 34000
Route SSN L176 LUSEM DCT LULUT DCT ADABI DCT BOKNO UN858 VANAD UN874 BAMES UT191 PODEM UN873 BAZOS DCT BELDI DCT VEKIN/N0421F240 Z173 ARVOL
Aircraft A320/M-SDE3FGHIRWY/LB1

Departure

Time 2026-05-06 15:23
Airport Bilbao Airport (LEBB)

Arrival

Time 2026-05-06 16:59
Airport Brussels Airport (EBBR)
Time Latitude Longitude Altitude Speed Heading
2026-05-06 15:01 43.30452 -2.90682 132 ft 0 kts 26°
2026-05-06 15:14 43.30446 -2.90686 132 ft 4 kts 27°
2026-05-06 15:15 43.30422 -2.90704 132 ft 4 kts 34°
2026-05-06 15:15 43.30401 -2.90728 132 ft 4 kts 52°
2026-05-06 15:15 43.30392 -2.90756 132 ft 3 kts 109°
2026-05-06 15:15 43.30395 -2.90767 132 ft 0 kts 116°
2026-05-06 15:18 43.30394 -2.90764 132 ft 3 kts 116°
2026-05-06 15:18 43.30351 -2.90642 132 ft 16 kts 116°
2026-05-06 15:18 43.30286 -2.90561 133 ft 10 kts 147°
2026-05-06 15:18 43.30233 -2.90530 133 ft 11 kts 175°
2026-05-06 15:19 43.30138 -2.90567 134 ft 13 kts 171°
2026-05-06 15:19 43.30091 -2.90496 134 ft 9 kts 118°
2026-05-06 15:19 43.30057 -2.90403 135 ft 13 kts 116°
2026-05-06 15:19 43.30019 -2.90301 136 ft 11 kts 117°
2026-05-06 15:20 43.29989 -2.90220 136 ft 8 kts 117°
2026-05-06 15:20 43.29957 -2.90135 136 ft 17 kts 117°
2026-05-06 15:20 43.29903 -2.89988 137 ft 16 kts 115°
2026-05-06 15:20 43.29861 -2.89866 137 ft 12 kts 115°
2026-05-06 15:21 43.29823 -2.89768 138 ft 15 kts 118°
2026-05-06 15:21 43.29777 -2.89647 138 ft 12 kts 115°
2026-05-06 15:21 43.29749 -2.89564 138 ft 9 kts 115°
2026-05-06 15:21 43.29684 -2.89498 139 ft 11 kts 191°
2026-05-06 15:22 43.29657 -2.89547 139 ft 7 kts 248°
2026-05-06 15:22 43.29627 -2.89665 138 ft 15 kts 257°
2026-05-06 15:22 43.29646 -2.89799 138 ft 15 kts 287°
2026-05-06 15:22 43.29686 -2.89909 137 ft 11 kts 299°
2026-05-06 15:23 43.29770 -2.90133 138 ft 58 kts 296°
2026-05-06 15:23 43.30049 -2.90900 132 ft 120 kts 297°
2026-05-06 15:23 43.30491 -2.92114 283 ft 153 kts 295°
2026-05-06 15:23 43.30941 -2.93395 1046 ft 148 kts 297°
2026-05-06 15:24 43.31384 -2.94660 1825 ft 147 kts 297°
2026-05-06 15:24 43.31856 -2.95944 2352 ft 159 kts 298°
2026-05-06 15:24 43.32401 -2.97386 2719 ft 181 kts 301°
2026-05-06 15:24 43.33340 -2.98668 3027 ft 202 kts 323°
2026-05-06 15:25 43.34449 -2.99909 3565 ft 209 kts 318°
2026-05-06 15:25 43.35539 -3.01253 4280 ft 211 kts 317°
2026-05-06 15:25 43.36620 -3.02624 5016 ft 213 kts 316°
2026-05-06 15:25 43.37710 -3.04020 5734 ft 216 kts 316°
2026-05-06 15:26 43.38813 -3.05435 6455 ft 218 kts 316°
2026-05-06 15:26 43.40013 -3.06733 7058 ft 226 kts 334°
2026-05-06 15:26 43.41608 -3.06985 7442 ft 248 kts 12°
2026-05-06 15:26 43.43090 -3.05724 8095 ft 261 kts 49°
2026-05-06 15:27 43.43886 -3.03447 8848 ft 269 kts 73°
2026-05-06 15:27 43.44440 -3.00984 9650 ft 271 kts 63°
2026-05-06 15:27 43.45523 -2.98869 10368 ft 272 kts 45°
2026-05-06 15:27 43.46865 -2.97031 11094 ft 274 kts 40°
2026-05-06 15:28 43.48289 -2.95270 11795 ft 277 kts 38°
2026-05-06 15:28 43.49678 -2.93408 12490 ft 282 kts 51°
2026-05-06 15:28 43.50579 -2.90984 13180 ft 289 kts 74°
2026-05-06 15:28 43.50755 -2.88166 13527 ft 308 kts 98°
2026-05-06 15:29 43.50066 -2.85330 13992 ft 317 kts 115°
2026-05-06 15:29 43.49133 -2.82556 14583 ft 322 kts 115°
2026-05-06 15:29 43.48199 -2.79738 15206 ft 325 kts 114°
2026-05-06 15:29 43.47263 -2.76891 15825 ft 328 kts 114°
2026-05-06 15:30 43.46322 -2.74020 16468 ft 330 kts 114°
2026-05-06 15:30 43.45375 -2.71123 17100 ft 333 kts 114°
2026-05-06 15:30 43.44422 -2.68200 17725 ft 336 kts 114°
2026-05-06 15:30 43.43460 -2.65252 18350 ft 339 kts 114°
2026-05-06 15:31 43.42487 -2.62277 18883 ft 342 kts 113°
2026-05-06 15:31 43.41506 -2.59282 19401 ft 345 kts 114°
2026-05-06 15:31 43.40528 -2.56304 19927 ft 347 kts 114°
2026-05-06 15:32 43.38522 -2.50205 20978 ft 353 kts 114°
2026-05-06 15:32 43.37508 -2.47125 21484 ft 355 kts 114°
2026-05-06 15:32 43.36480 -2.44016 21988 ft 358 kts 114°
2026-05-06 15:32 43.35446 -2.40889 22499 ft 361 kts 114°
2026-05-06 15:33 43.34400 -2.37733 23021 ft 364 kts 114°
2026-05-06 15:33 43.33350 -2.34561 23535 ft 366 kts 114°
2026-05-06 15:33 43.32291 -2.31363 23973 ft 369 kts 113°
2026-05-06 15:33 43.31425 -2.28043 24381 ft 370 kts 102°
2026-05-06 15:34 43.31013 -2.24540 24630 ft 377 kts 91°
2026-05-06 15:34 43.30998 -2.20895 24759 ft 388 kts 88°
2026-05-06 15:34 43.31025 -2.17131 24876 ft 399 kts 88°
2026-05-06 15:34 43.31047 -2.13272 25000 ft 409 kts 88°
2026-05-06 15:35 43.31064 -2.09317 25122 ft 419 kts 88°
2026-05-06 15:35 43.31077 -2.05271 25248 ft 428 kts 88°
2026-05-06 15:35 43.31086 -2.01145 25368 ft 436 kts 88°
2026-05-06 15:35 43.31093 -1.96944 25498 ft 444 kts 88°
2026-05-06 15:36 43.31367 -1.92707 25630 ft 449 kts 78°
2026-05-06 15:36 43.32191 -1.88568 25860 ft 450 kts 67°
2026-05-06 15:36 43.33527 -1.84695 26149 ft 449 kts 57°
2026-05-06 15:36 43.35320 -1.81194 26447 ft 448 kts 47°
2026-05-06 15:37 43.37522 -1.78168 26751 ft 447 kts 38°
2026-05-06 15:37 43.40012 -1.75609 27052 ft 447 kts 33°
2026-05-06 15:37 43.42585 -1.73198 27354 ft 448 kts 32°
2026-05-06 15:37 43.45205 -1.70868 27645 ft 449 kts 31°
2026-05-06 15:38 43.47823 -1.68594 27933 ft 451 kts 30°
2026-05-06 15:38 43.50471 -1.66293 28304 ft 450 kts 31°
2026-05-06 15:38 43.53104 -1.63976 28751 ft 448 kts 31°
2026-05-06 15:38 43.55713 -1.61641 29172 ft 447 kts 31°
2026-05-06 15:39 43.58304 -1.59289 29598 ft 445 kts 32°
2026-05-06 15:39 43.60890 -1.56928 30029 ft 444 kts 32°
2026-05-06 15:39 43.63455 -1.54574 30364 ft 443 kts 32°
2026-05-06 15:39 43.66025 -1.52223 30665 ft 443 kts 31°
2026-05-06 15:40 43.68601 -1.49872 30929 ft 444 kts 31°
2026-05-06 15:40 43.71181 -1.47522 31188 ft 445 kts 31°
2026-05-06 15:40 43.73759 -1.45172 31442 ft 446 kts 31°
2026-05-06 15:40 43.76347 -1.42809 31684 ft 447 kts 31°
2026-05-06 15:41 43.78947 -1.40435 31954 ft 448 kts 31°
2026-05-06 15:41 43.81518 -1.38083 32212 ft 449 kts 31°
2026-05-06 15:41 43.84120 -1.35691 32471 ft 450 kts 31°
2026-05-06 15:41 43.86732 -1.33286 32730 ft 451 kts 31°
2026-05-06 15:42 43.89345 -1.30883 32999 ft 452 kts 31°
2026-05-06 15:42 43.91968 -1.28472 33251 ft 452 kts 31°
2026-05-06 15:42 43.94589 -1.26058 33524 ft 453 kts 31°
2026-05-06 15:42 43.97220 -1.23634 33794 ft 454 kts 31°
2026-05-06 15:43 43.99857 -1.21205 33962 ft 455 kts 31°
2026-05-06 15:43 44.02509 -1.18762 33997 ft 458 kts 30°
2026-05-06 15:43 44.07823 -1.13852 33995 ft 459 kts 31°
2026-05-06 15:44 44.13131 -1.08922 33992 ft 459 kts 31°
2026-05-06 15:44 44.18410 -1.04024 33999 ft 458 kts 31°
2026-05-06 15:45 44.23707 -0.99084 33983 ft 458 kts 31°
2026-05-06 15:45 44.29005 -0.94136 33985 ft 458 kts 31°
2026-05-06 15:46 44.33441 -0.89994 33990 ft 458 kts 31°
2026-05-06 15:46 44.38739 -0.85051 33987 ft 457 kts 29°
2026-05-06 15:47 44.44384 -0.81229 33992 ft 453 kts 20°
2026-05-06 15:47 44.50167 -0.77715 33984 ft 453 kts 21°
2026-05-06 15:48 44.55944 -0.74181 33982 ft 453 kts 21°
2026-05-06 15:48 44.61708 -0.70656 33983 ft 453 kts 21°
2026-05-06 15:49 44.67468 -0.67112 33988 ft 452 kts 21°
2026-05-06 15:49 44.73234 -0.63558 33986 ft 452 kts 21°
2026-05-06 15:50 44.79002 -0.60017 33986 ft 452 kts 21°
2026-05-06 15:50 44.84717 -0.56503 33985 ft 451 kts 21°
2026-05-06 15:51 44.90459 -0.52937 33989 ft 450 kts 21°
2026-05-06 15:51 44.96198 -0.49367 33978 ft 450 kts 21°
2026-05-06 15:52 45.01933 -0.45805 33982 ft 450 kts 21°
2026-05-06 15:52 45.07660 -0.42239 33973 ft 450 kts 21°
2026-05-06 15:53 45.13387 -0.38672 33967 ft 449 kts 21°
2026-05-06 15:53 45.19111 -0.35089 33969 ft 449 kts 22°
2026-05-06 15:54 45.24821 -0.31514 33961 ft 449 kts 22°
2026-05-06 15:54 45.30535 -0.27930 33955 ft 449 kts 22°
2026-05-06 15:55 45.36203 -0.24356 33943 ft 448 kts 22°
2026-05-06 15:55 45.41906 -0.20746 33938 ft 449 kts 22°
2026-05-06 15:56 45.47609 -0.17138 33937 ft 448 kts 22°
2026-05-06 15:56 45.53307 -0.13525 33939 ft 449 kts 22°
2026-05-06 15:57 45.59005 -0.09901 33938 ft 448 kts 22°
2026-05-06 15:57 45.64703 -0.06265 33932 ft 448 kts 22°
2026-05-06 15:58 45.70394 -0.02633 33921 ft 448 kts 22°
2026-05-06 15:58 45.76097 0.01010 33919 ft 448 kts 22°
2026-05-06 15:59 45.81789 0.04658 33912 ft 448 kts 22°
2026-05-06 15:59 45.87473 0.08303 33916 ft 448 kts 22°
2026-05-06 16:00 45.93125 0.11947 33924 ft 448 kts 22°
2026-05-06 16:00 45.98812 0.15621 33918 ft 448 kts 22°
2026-05-06 16:01 46.04515 0.19304 33931 ft 449 kts 22°
2026-05-06 16:01 46.10214 0.23003 33936 ft 450 kts 22°
2026-05-06 16:02 46.15923 0.26722 33931 ft 450 kts 22°
2026-05-06 16:02 46.21632 0.30450 33932 ft 450 kts 23°
2026-05-06 16:03 46.27346 0.34173 33930 ft 450 kts 23°
2026-05-06 16:03 46.33024 0.37875 33932 ft 450 kts 23°
2026-05-06 16:04 46.38736 0.41625 33942 ft 451 kts 23°
2026-05-06 16:04 46.44448 0.45381 33937 ft 451 kts 23°
2026-05-06 16:05 46.50163 0.49147 33940 ft 451 kts 23°
2026-05-06 16:05 46.55909 0.52820 33945 ft 451 kts 18°
2026-05-06 16:06 46.61978 0.55013 33937 ft 450 kts 11°
2026-05-06 16:06 46.67948 0.56959 33942 ft 450 kts 12°
2026-05-06 16:07 46.74052 0.58973 33943 ft 450 kts 12°
2026-05-06 16:07 46.79968 0.60940 33928 ft 450 kts 12°
2026-05-06 16:08 46.86075 0.62968 33939 ft 450 kts 12°
2026-05-06 16:08 46.92189 0.64994 33942 ft 450 kts 12°
2026-05-06 16:09 46.98299 0.67027 33926 ft 450 kts 12°
2026-05-06 16:09 47.04236 0.68965 33930 ft 451 kts
2026-05-06 16:10 47.10471 0.69778 33933 ft 450 kts
2026-05-06 16:10 47.16716 0.70421 33931 ft 450 kts
2026-05-06 16:11 47.22961 0.71067 33939 ft 450 kts
2026-05-06 16:11 47.29199 0.71714 33933 ft 449 kts
2026-05-06 16:12 47.35443 0.72364 33939 ft 449 kts
2026-05-06 16:12 47.41670 0.73021 33938 ft 449 kts
2026-05-06 16:13 47.47904 0.73719 33945 ft 449 kts
2026-05-06 16:13 47.53933 0.76013 33934 ft 449 kts 18°
2026-05-06 16:14 47.59869 0.78931 33944 ft 449 kts 18°
2026-05-06 16:14 47.65761 0.81826 33937 ft 449 kts 18°
2026-05-06 16:15 47.71733 0.84776 33935 ft 449 kts 18°
2026-05-06 16:15 47.77624 0.87697 33924 ft 449 kts 18°
2026-05-06 16:16 47.83553 0.90642 33924 ft 449 kts 18°
2026-05-06 16:16 47.89470 0.93604 33933 ft 449 kts 19°
2026-05-06 16:17 47.95388 0.96600 33926 ft 449 kts 19°
2026-05-06 16:17 48.01303 0.99612 33923 ft 449 kts 19°
2026-05-06 16:18 48.07217 1.02622 33926 ft 449 kts 19°
2026-05-06 16:18 48.13146 1.05625 33931 ft 450 kts 19°
2026-05-06 16:19 48.19070 1.08651 33932 ft 450 kts 19°
2026-05-06 16:19 48.24994 1.11681 33927 ft 450 kts 19°
2026-05-06 16:20 48.30922 1.14703 33928 ft 450 kts 19°
2026-05-06 16:20 48.36849 1.17726 33920 ft 450 kts 20°
2026-05-06 16:21 48.42773 1.20767 33921 ft 449 kts 20°
2026-05-06 16:21 48.48695 1.23813 33924 ft 449 kts 20°
2026-05-06 16:22 48.54578 1.26833 33925 ft 450 kts 20°
2026-05-06 16:22 48.60515 1.29852 33926 ft 450 kts 19°
2026-05-06 16:23 48.66453 1.32823 33932 ft 450 kts 19°
2026-05-06 16:23 48.72395 1.35814 33939 ft 449 kts 19°
2026-05-06 16:24 48.78325 1.38825 33942 ft 449 kts 20°
2026-05-06 16:24 48.84245 1.41832 33942 ft 448 kts 19°
2026-05-06 16:25 48.90134 1.44827 33940 ft 449 kts 20°
2026-05-06 16:25 48.96055 1.47844 33937 ft 449 kts 19°
2026-05-06 16:26 49.02194 1.49703 33932 ft 451 kts 10°
2026-05-06 16:26 49.08409 1.51144 33927 ft 452 kts 10°
2026-05-06 16:27 49.14622 1.52599 33928 ft 452 kts 10°
2026-05-06 16:27 49.20843 1.54090 33926 ft 452 kts 13°
2026-05-06 16:28 49.26694 1.57403 33934 ft 448 kts 31°
2026-05-06 16:28 49.31558 1.63188 33933 ft 446 kts 45°
2026-05-06 16:29 49.36047 1.69769 33923 ft 447 kts 45°
2026-05-06 16:29 49.40547 1.76365 33920 ft 447 kts 45°
2026-05-06 16:30 49.44288 1.81850 33924 ft 448 kts 45°
2026-05-06 16:30 49.49550 1.89592 33928 ft 448 kts 45°
2026-05-06 16:31 49.54055 1.96245 33927 ft 448 kts 45°
2026-05-06 16:31 49.58544 2.02892 33928 ft 448 kts 45°
2026-05-06 16:32 49.63029 2.09562 33929 ft 448 kts 45°
2026-05-06 16:32 49.67516 2.16252 33922 ft 449 kts 46°
2026-05-06 16:33 49.71974 2.22918 33921 ft 449 kts 45°
2026-05-06 16:34 49.78723 2.33010 33911 ft 451 kts 45°
2026-05-06 16:34 49.83229 2.39779 33904 ft 451 kts 46°
2026-05-06 16:35 49.87730 2.46577 33903 ft 452 kts 46°
2026-05-06 16:35 49.92232 2.53406 33898 ft 453 kts 46°
2026-05-06 16:36 49.96740 2.60235 33903 ft 453 kts 46°
2026-05-06 16:36 50.01254 2.67083 33909 ft 453 kts 46°
2026-05-06 16:37 50.05755 2.73962 33908 ft 454 kts 46°
2026-05-06 16:37 50.10253 2.80853 33907 ft 454 kts 46°
2026-05-06 16:38 50.13998 2.86586 33906 ft 454 kts 46°
2026-05-06 16:38 50.18499 2.93496 33907 ft 454 kts 46°
2026-05-06 16:38 50.21477 2.98087 33804 ft 453 kts 46°
2026-05-06 16:39 50.22988 3.00419 33298 ft 453 kts 46°
2026-05-06 16:39 50.25232 3.03886 32427 ft 455 kts 46°
2026-05-06 16:39 50.27486 3.07375 31564 ft 456 kts 46°
2026-05-06 16:39 50.29745 3.10880 30690 ft 458 kts 46°
2026-05-06 16:40 50.31985 3.14360 29817 ft 460 kts 46°
2026-05-06 16:40 50.34257 3.17897 28780 ft 462 kts 46°
2026-05-06 16:40 50.36539 3.21448 27755 ft 465 kts 46°
2026-05-06 16:40 50.38838 3.25034 26767 ft 468 kts 46°
2026-05-06 16:41 50.41153 3.28646 25818 ft 471 kts 46°
2026-05-06 16:41 50.43475 3.32267 24904 ft 470 kts 46°
2026-05-06 16:41 50.45791 3.35886 24014 ft 469 kts 46°
2026-05-06 16:41 50.48098 3.39496 23080 ft 467 kts 46°
2026-05-06 16:42 50.50390 3.43090 22065 ft 465 kts 45°
2026-05-06 16:42 50.52677 3.46680 21101 ft 464 kts 46°
2026-05-06 16:42 50.55052 3.50115 20161 ft 463 kts 39°
2026-05-06 16:42 50.57665 3.53067 19249 ft 462 kts 36°
2026-05-06 16:43 50.60260 3.55905 18348 ft 445 kts 36°
2026-05-06 16:43 50.62759 3.58642 17379 ft 429 kts 36°
2026-05-06 16:43 50.65169 3.61284 16407 ft 415 kts 36°
2026-05-06 16:43 50.67501 3.63851 15477 ft 402 kts 36°
2026-05-06 16:44 50.69759 3.66345 14511 ft 391 kts 35°
2026-05-06 16:44 50.71955 3.68779 13528 ft 382 kts 35°
2026-05-06 16:44 50.74102 3.71161 12409 ft 374 kts 35°
2026-05-06 16:44 50.76225 3.73515 11258 ft 369 kts 35°
2026-05-06 16:45 50.78311 3.75833 10147 ft 364 kts 35°
2026-05-06 16:45 50.80333 3.78087 9448 ft 349 kts 35°
2026-05-06 16:45 50.82237 3.80216 9278 ft 320 kts 35°
2026-05-06 16:45 50.83983 3.82168 9143 ft 295 kts 35°
2026-05-06 16:46 50.85569 3.84075 8785 ft 281 kts 40°
2026-05-06 16:46 50.86980 3.86163 8215 ft 275 kts 46°
2026-05-06 16:46 50.88210 3.88441 7931 ft 272 kts 57°
2026-05-06 16:46 50.88967 3.91197 7905 ft 275 kts 71°
2026-05-06 16:47 50.89537 3.94094 7908 ft 276 kts 72°
2026-05-06 16:47 50.90090 3.97014 7900 ft 276 kts 72°
2026-05-06 16:47 50.90641 3.99929 7901 ft 276 kts 72°
2026-05-06 16:47 50.91187 4.02836 7897 ft 275 kts 72°
2026-05-06 16:48 50.91662 4.05363 7898 ft 276 kts 72°
2026-05-06 16:48 50.92209 4.08283 7896 ft 276 kts 72°
2026-05-06 16:48 50.92757 4.11200 7895 ft 276 kts 72°
2026-05-06 16:48 50.93303 4.14116 7895 ft 276 kts 72°
2026-05-06 16:49 50.93850 4.17033 7896 ft 276 kts 72°
2026-05-06 16:49 50.94394 4.19941 7896 ft 276 kts 72°
2026-05-06 16:49 50.94939 4.22861 7895 ft 276 kts 72°
2026-05-06 16:49 50.95484 4.25784 7892 ft 276 kts 72°
2026-05-06 16:50 50.96028 4.28700 7892 ft 276 kts 72°
2026-05-06 16:50 50.96573 4.31623 7893 ft 276 kts 72°
2026-05-06 16:50 50.97118 4.34541 7894 ft 276 kts 72°
2026-05-06 16:50 50.97665 4.37471 7894 ft 276 kts 72°
2026-05-06 16:51 50.98212 4.40394 7881 ft 276 kts 72°
2026-05-06 16:51 50.98753 4.43301 7560 ft 274 kts 72°
2026-05-06 16:51 50.99287 4.46194 7188 ft 272 kts 72°
2026-05-06 16:51 50.99802 4.49031 6826 ft 271 kts 72°
2026-05-06 16:52 51.00317 4.51892 6461 ft 269 kts 72°
2026-05-06 16:52 51.00825 4.54738 6076 ft 267 kts 73°
2026-05-06 16:52 51.01329 4.57566 5697 ft 265 kts 72°
2026-05-06 16:52 51.01825 4.60378 5307 ft 263 kts 73°
2026-05-06 16:53 51.02319 4.63173 4928 ft 261 kts 72°
2026-05-06 16:53 51.02805 4.65945 4520 ft 260 kts 73°
2026-05-06 16:53 51.03286 4.68699 4129 ft 257 kts 72°
2026-05-06 16:53 51.03760 4.71421 3765 ft 255 kts 73°
2026-05-06 16:54 51.04061 4.74178 3380 ft 254 kts 91°
2026-05-06 16:54 51.03537 4.76837 3023 ft 257 kts 120°
2026-05-06 16:54 51.02238 4.78780 2601 ft 261 kts 147°
2026-05-06 16:54 51.00624 4.80073 2342 ft 255 kts 152°
2026-05-06 16:55 50.99022 4.81132 2210 ft 246 kts 164°
2026-05-06 16:55 50.97359 4.80961 2085 ft 241 kts 203°
2026-05-06 16:55 50.96108 4.79272 1988 ft 236 kts 243°
2026-05-06 16:55 50.95512 4.76947 2002 ft 221 kts 253°
2026-05-06 16:56 50.95014 4.74709 2004 ft 208 kts 253°
2026-05-06 16:56 50.94547 4.72646 2013 ft 190 kts 253°
2026-05-06 16:56 50.94115 4.70752 2033 ft 179 kts 253°
2026-05-06 16:56 50.93695 4.68908 2014 ft 177 kts 253°
2026-05-06 16:57 50.93284 4.67106 2009 ft 176 kts 254°
2026-05-06 16:57 50.92866 4.65281 1902 ft 176 kts 254°
2026-05-06 16:57 50.92451 4.63467 1703 ft 174 kts 253°
2026-05-06 16:57 50.92037 4.61664 1475 ft 174 kts 253°
2026-05-06 16:58 50.91626 4.59869 1243 ft 173 kts 253°
2026-05-06 16:58 50.91222 4.58112 983 ft 164 kts 253°
2026-05-06 16:58 50.90842 4.56461 755 ft 158 kts 253°
2026-05-06 16:58 50.90470 4.54842 543 ft 155 kts 252°
2026-05-06 16:59 50.90105 4.53255 331 ft 153 kts 253°
2026-05-06 16:59 50.89740 4.51671 173 ft 147 kts 251°
2026-05-06 16:59 50.89486 4.50540 175 ft 66 kts 249°
2026-05-06 16:59 50.89362 4.50010 177 ft 48 kts 250°
2026-05-06 17:00 50.89276 4.49637 177 ft 34 kts 249°
2026-05-06 17:00 50.89240 4.49312 175 ft 25 kts 291°
2026-05-06 17:00 50.89293 4.49182 170 ft 0 kts 310°
2026-05-06 17:00 50.89295 4.49178 170 ft 0 kts 310°
2026-05-06 17:01 50.89297 4.49175 169 ft 0 kts 310°
2026-05-06 17:02 50.89306 4.49157 169 ft 10 kts 310°
2026-05-06 17:03 50.89387 4.49109 165 ft 13 kts
2026-05-06 17:03 50.89473 4.49145 161 ft 6 kts 19°
2026-05-06 17:03 50.89498 4.49159 160 ft 6 kts 19°
2026-05-06 17:03 50.89545 4.49184 158 ft 0 kts 17°
2026-05-06 17:04 50.89569 4.49196 157 ft 13 kts 20°
2026-05-06 17:04 50.89703 4.49289 149 ft 24 kts 14°
2026-05-06 17:04 50.89867 4.49344 139 ft 20 kts 17°
2026-05-06 17:05 50.90014 4.49414 131 ft 24 kts 14°
2026-05-06 17:05 50.90182 4.49482 128 ft 25 kts 14°
2026-05-06 17:05 50.90290 4.49525 121 ft 16 kts 15°
2026-05-06 17:05 50.90369 4.49551 121 ft 8 kts 11°
2026-05-06 17:06 50.90445 4.49546 121 ft 13 kts 320°
2026-05-06 17:06 50.90429 4.49427 121 ft 11 kts 244°
2026-05-06 17:06 50.90415 4.49321 124 ft 9 kts 284°
2026-05-06 17:06 50.90481 4.49252 121 ft 15 kts 336°
2026-05-06 17:07 50.90575 4.49185 123 ft 16 kts 336°
2026-05-06 17:07 50.90633 4.49071 117 ft 10 kts 237°
2026-05-06 17:07 50.90575 4.49042 121 ft 8 kts 191°
2026-05-06 17:07 50.90532 4.49030 121 ft 2 kts 189°
2026-05-06 17:08 50.90528 4.49029 121 ft 0 kts 189°